Find Starlink 1972

NORAD ID: 47627 Int'l Des: 2021-012 Owner: SPXS Country: US Constellation: starlink operational
LEOCIRCULAR

Live Position

Loading 3D Globe...

About Starlink 1972

Description loading...

Upcoming Passes

Passes for default location (London). Set your location on the main map for personalized predictions.

Altitude History

Loading altitude history...

Two-Line Element Set

1 47627U 21012H 26124.09891344 .00060733 00000-0 83632-3 0 9999
2 47627 53.0478 57.9887 0006420 73.5457 286.6258 15.56669495290062
Epoch: May 4, 2026 • Age: 17 hours

Current Status

Altitude 419.7 km
Velocity 7.66 km/s
Sub-Earth Point -53.18°S, 179.9°E
Launch Date Feb 16, 2021
Age 5.2 years
Type internet

Technical Details

Classification Payload
Mass 260.00 kg
Dry Mass 248.00 kg
Total Mass 260.00 kg
Length 0.20 m
Diameter 2.80 m
Span 9.00 m
Shape Box + pan
Manufacturer SPXS
Bus Type Starlink
Phase Status In Orbit
Owner/State SPXS/US

Most Searched